Location: Downe
(51.3167°N, 0.0500°E)
Time: 03:40:32
(UTC+00:00)

Cosmos 1606 - Pass Details

Date: 17 November 2019
Orbit: 504 x 528 km, 82.5° (Epoch: 06 December)

Event Time Altitude Azimuth Distance (km) Brightness Sun altitude
Exits shadow 05:30:33 - 352° (N) 2,510 6.0 -16.8°
Reaches altitude 10° 05:32:26 10° 356° (N) 1,734 5.2 -16.5°
Maximum altitude 05:36:12 62° 77° (ENE) 580 3.1 -16.0°
Drops below altitude 10° 05:39:58 10° 159° (SSE) 1,730 5.8 -15.4°
Sets 05:42:06 0° 163° (SSE) 2,615 6.7 -15.1°
